User: anonymous   Login
Location: Pine Mountain Observatory
(43.7910°N, 120.9377°W)
Time: 06:31:46
(UTC-07:00)
Language:

Cosmos 1867 - Orbit

View from above orbital plane
View from above orbital plane
View from above satellite
View from above satellite

Ground track
Ground track

The orbit data is extracted from the following two-line orbital elements,

1 18187U 87060A   17117.91656988 -.00000078 +00000-0 +83334-5 0  9997
2 18187 065.0123 009.4924 0015257 259.3236 100.6130 14.31083712556571
Epoch (UTC): 27 April 2017 21:59:51
Eccentricity: 0.0015257
inclination: 65.0123°
perigee height: 777 km
apogee height: 799 km
right ascension of ascending node: 9.4924°
argument of perigee: 259.3236°
revolutions per day: 14.31083712
mean anomaly at epoch: 100.6130°
orbit number at epoch: 55657

The dashed part of the orbit path shows where the satellite is in the earth's shadow,  

DLR